TimeCDT,TemperatureF,Dew PointF,Humidity,Sea Level PressureIn,VisibilityMPH,Wind Direction,Wind SpeedMPH,Gust SpeedMPH,PrecipitationIn,Events,Conditions,WindDirDegrees,DateUTC
12:53 AM,48.0,37.0,66,30.32,10.0,ESE,6.9,-,N/A,,Clear,110,2013-05-26 05:53:00
1:53 AM,44.1,37.0,76,30.30,10.0,Calm,Calm,-,N/A,,Clear,0,2013-05-26 06:53:00
2:53 AM,43.0,36.0,76,30.30,10.0,NNE,3.5,-,N/A,,Clear,20,2013-05-26 07:53:00
3:53 AM,41.0,35.1,79,30.28,10.0,Calm,Calm,-,N/A,,Clear,0,2013-05-26 08:53:00
4:53 AM,44.1,37.0,76,30.29,10.0,Calm,Calm,-,N/A,,Overcast,0,2013-05-26 09:53:00
5:53 AM,46.9,36.0,66,30.28,10.0,Calm,Calm,-,N/A,,Mostly Cloudy,0,2013-05-26 10:53:00
6:53 AM,48.0,36.0,63,30.30,10.0,East,3.5,-,N/A,,Mostly Cloudy,100,2013-05-26 11:53:00
7:53 AM,51.1,37.0,59,30.30,10.0,ESE,4.6,-,N/A,,Scattered Clouds,120,2013-05-26 12:53:00
8:53 AM,54.0,39.0,57,30.29,10.0,SE,9.2,-,N/A,,Partly Cloudy,130,2013-05-26 13:53:00
9:53 AM,59.0,39.9,49,30.28,10.0,SE,11.5,-,N/A,,Partly Cloudy,130,2013-05-26 14:53:00
10:53 AM,60.1,39.9,47,30.28,10.0,SE,10.4,-,N/A,,Scattered Clouds,140,2013-05-26 15:53:00
11:53 AM,64.0,44.1,48,30.27,10.0,ESE,13.8,-,N/A,,Mostly Cloudy,110,2013-05-26 16:53:00
12:53 PM,64.9,42.1,43,30.25,10.0,ESE,10.4,-,N/A,,Scattered Clouds,110,2013-05-26 17:53:00
1:53 PM,64.9,42.1,43,30.24,10.0,ESE,15.0,-,N/A,,Mostly Cloudy,120,2013-05-26 18:53:00
2:53 PM,63.0,45.0,52,30.23,8.0,ESE,8.1,-,0.00,Rain,Light Rain,120,2013-05-26 19:53:00
3:53 PM,60.1,48.0,64,30.21,9.0,SE,10.4,-,0.00,Rain,Light Rain,130,2013-05-26 20:53:00
4:53 PM,57.9,50.0,75,30.21,9.0,East,5.8,-,0.01,Rain,Light Rain,100,2013-05-26 21:53:00
5:53 PM,55.9,48.9,77,30.20,10.0,ESE,10.4,-,0.02,Rain,Light Rain,110,2013-05-26 22:53:00
6:53 PM,55.9,48.9,77,30.19,10.0,ESE,9.2,-,0.00,,Overcast,120,2013-05-26 23:53:00
7:53 PM,55.0,48.9,80,30.18,10.0,ESE,9.2,-,N/A,,Overcast,120,2013-05-27 00:53:00
8:53 PM,55.0,46.9,74,30.17,10.0,ESE,11.5,-,N/A,,Overcast,110,2013-05-27 01:53:00
9:53 PM,55.9,46.0,69,30.17,10.0,East,5.8,-,N/A,,Overcast,100,2013-05-27 02:53:00
10:53 PM,55.0,46.0,72,30.18,10.0,East,4.6,-,N/A,,Overcast,80,2013-05-27 03:53:00
11:53 PM,54.0,41.0,62,30.17,10.0,East,10.4,-,N/A,,Overcast,100,2013-05-27 04:53:00